Location: Sungai Ketit
(2.6833°N, 113.2333°E)
Time: 11:54:50
(UTC+00:00)

Cosmos-2242 - Visible Passes

Search period start: 16 December 2025 00:00
Search period end: 26 December 2025 00:00
Orbit: 568 x 589 km, 82.5° (Epoch: 15 December)

Date Brightness Start Highest point End Pass type
(mag) Time Alt. Az. Time Alt. Az. Time Alt. Az.
16 Dec 6.0 10:43:52 10° WSW 10:46:06 14° W 10:48:20 10° NW visible
16 Dec 5.2 21:06:51 10° NNE 21:10:15 24° E 21:13:37 10° SE visible
17 Dec 4.4 21:11:06 10° NNE 21:14:56 37° E 21:18:46 10° SSE visible
18 Dec 3.4 21:15:33 10° N 21:19:37 60° E 21:23:41 10° SSE visible
19 Dec 2.8 21:20:11 10° N 21:24:18 85° W 21:28:25 10° S visible
20 Dec 3.0 21:25:28 13° NNW 21:28:58 53° W 21:32:59 10° S visible
21 Dec 3.6 21:31:11 18° NW 21:33:38 34° W 21:37:22 10° SSW visible
22 Dec 5.9 20:00:27 10° ENE 20:01:34 11° E 20:02:57 10° ESE visible
22 Dec 4.1 21:36:50 18° WNW 21:38:18 22° W 21:41:32 10° SW visible
23 Dec 5.4 20:06:04 18° E 20:06:15 18° E 20:09:01 10° SE visible
23 Dec 4.6 21:42:26 14° W 21:42:58 15° W 21:45:17 10° SW visible
24 Dec 5.0 20:11:37 25° ESE 20:11:37 25° ESE 20:14:23 10° SE visible
25 Dec 4.8 20:17:08 28° SE 20:17:08 28° SE 20:19:28 10° SSE visible
